Track COSMOS 1500 now! 10-day predictions COSMOS 1500 is classified as:
1 14372U 83099A 21022.75713299 .00000685 00000-0 30987-4 0 9996 2 14372 82.5161 121.9033 0014924 181.6373 333.9837 15.19073155 37081